Location: Burgberg
(50.1428°N, 11.0671°E)
Time: 08:30:14
(UTC+00:00)

Meteor 1-21 Rocket - Pass Details

Date: 26 January 2020
Orbit: 834 x 906 km, 81.2° (Epoch: 27 February)

Event Time Altitude Azimuth Distance (km) Brightness Sun altitude
Exits shadow 04:23:43 54° 237° (WSW) 1,092 4.4 -24.6°
Drops below altitude 10° 04:28:49 10° 188° (S) 2,584 6.7 -23.8°
Sets 04:31:18 0° 184° (S) 3,520 7.4 -23.4°
